Weather History for Garrison, ND

Change the Weather History Date:

Monday, September 30, 2013

  Actual Average Record
Temperature  
Mean Temperature 60 °F -  
Max Temperature 76 °F 61 °F 82 °F (2005)
Min Temperature 44 °F 35 °F 24 °F (2003)
Degree Days  
Heating Degree Days 5    
Month to date heating degree days 115  
Growing Degree Days 10 (Base 50)    
Moisture  
Dew Point 44 °F    
Average Humidity 60    
Maximum Humidity 86    
Minimum Humidity 33    
Precipitation  
Precipitation 0.00 in - - ()
Month to date precipitation 3.19  
Year to date precipitation 25.50  
Sea Level Pressure  
Sea Level Pressure 29.53 in    
Wind  
Wind Speed 9 mph (WSW)    
Max Wind Speed 37 mph    
Max Gust Speed 48 mph    
Averages and records for this station are not official NWS values.
T = Trace of Precipitation, MM = Missing Value Source: NWS Daily Summary

Daily Weather History Graph

Daily Weather History Graph

Search for Another Location

Airport:

Trip Planner

Search our weather history database for the weather conditions in past years. The results will help you decide how hot, cold, wet, or windy it might be!

Date:

Astronomy

Sep. 30, 2013 Rise Set
Actual Time 7:43 AM CDT 7:26 PM CDT
Civil Twilight 7:13 AM CDT 7:57 PM CDT
Nautical Twilight 6:37 AM CDT 8:32 PM CDT
Astronomical Twilight 6:00 AM CDT 9:09 PM CDT
Moon 3:06 AM CDT (9/30) 5:11 PM CDT (9/30)
Length of Visible Light 12h 44m
Length of Day
11h 42m
Waning Crescent, 19% of the Moon is Illuminated
Sep 30
Waning Crescent
Oct 4
New
Oct 11
First Quarter
Oct 18
Full
Oct 26
Last Quarter

Hourly Weather History & Observations

Time (CDT) Temp. Dew Point Humidity Pressure Visibility Wind Dir Wind Speed Gust Speed Precip Events Conditions
12:52 AM 59.0 °F 42.1 °F 53% 29.56 in - WNW 9.2 mph - N/A   Unknown
1:52 AM 55.9 °F 44.1 °F 64% 29.56 in - West 5.8 mph - N/A   Unknown
2:52 AM 55.0 °F 43.0 °F 64% 29.57 in - West 5.8 mph - N/A   Unknown
3:52 AM 53.1 °F 39.0 °F 59% 29.57 in - West 8.1 mph - N/A   Unknown
4:52 AM 51.1 °F 39.0 °F 63% 29.57 in - West 6.9 mph - N/A   Unknown
5:52 AM 48.9 °F 37.9 °F 66% 29.56 in - West 5.8 mph - N/A   Unknown
6:52 AM 48.9 °F 42.1 °F 77% 29.56 in - West 5.8 mph - N/A   Unknown
7:52 AM 46.9 °F 42.1 °F 83% 29.58 in - Calm Calm - N/A   Unknown
8:52 AM 51.1 °F 45.0 °F 80% 29.56 in - Calm Calm - N/A   Unknown
9:52 AM 60.1 °F 45.0 °F 57% 29.55 in - SW 5.8 mph - N/A   Unknown
10:52 AM 62.1 °F 42.1 °F 48% 29.54 in - SW 10.4 mph - N/A   Unknown
11:52 AM 64.0 °F 39.9 °F 41% 29.53 in - SW 8.1 mph - N/A   Unknown
12:52 PM 66.9 °F 43.0 °F 42% 29.51 in - South 10.4 mph - N/A   Unknown
1:52 PM 68.0 °F 42.1 °F 39% 29.47 in - SSW 9.2 mph - N/A   Unknown
2:52 PM 73.0 °F 44.1 °F 35% 29.44 in - South 18.4 mph - N/A   Unknown
3:52 PM 75.0 °F 45.0 °F 34% 29.42 in - South 16.1 mph 23.0 mph N/A   Unknown
4:52 PM 75.0 °F 44.1 °F 33% 29.42 in - SSW 11.5 mph 20.7 mph N/A   Unknown
5:52 PM 73.0 °F 46.0 °F 38% 29.43 in - West 9.2 mph - N/A   Unknown
6:52 PM 66.0 °F 45.0 °F 47% 29.47 in - WNW 25.3 mph 48.3 mph N/A   Unknown
6:59 PM 64.0 °F 45.0 °F 50% 29.49 in - WNW 33.4 mph 48.3 mph N/A   Unknown
7:52 PM 55.0 °F 48.9 °F 80% 29.59 in - WNW 21.9 mph 35.7 mph N/A   Unknown
8:52 PM 53.1 °F 50.0 °F 89% 29.57 in - Calm Calm - 0.06 in   Unknown
9:52 PM 50.0 °F 48.9 °F 96% 29.56 in - Calm Calm - N/A   Unknown
10:52 PM 52.0 °F 48.0 °F 86% 29.60 in - West 11.5 mph - N/A   Unknown
11:52 PM 50.0 °F 45.0 °F 83% 29.61 in - West 12.7 mph - N/A   Unknown